Wind_Speed
9 8 7 6 5 4 4 3 4 6 6 6 7 7 8 7 8 8 9 9 10 11 13 15 17 19 20 21 22 23 23 23 24 25 25 25 25 28 31 30 30 30 31 33 34 35 36 36 34 34 34 36 35 35 39 39 33 28 30 33 34 33 31 30 30 30 29 29 29 28 27 27 26 25 24 23 25 28 29 30 32 32 32 31 30
9 8 8 8 7 7 6 5 5 5 5 6 7 8 9 9 9 9 10 10 10 12 13 13 15 17 19 21 22 23 24 24 24 25 26 27 26 26 28 29 30 30 31 34 35 36 37 37 36 36 37 38 35 34 39 38 32 30 31 31 32 32 31 29 29 30 30 29 29 28 27 26 25 25 25 23 24 27 28 29 31 31 31 31 31
9 8 8 8 7 8 7 7 6 6 5 6 7 8 9 9 10 10 11 11 12 13 13 14 15 16 18 19 21 22 23 23 23 22 22 23 23 24 27 29 29 28 28 30 30 32 35 36 36 37 38 38 36 36 40 39 35 32 31 32 33 33 32 31 31 31 31 30 29 29 28 28 27 26 26 25 25 26 27 29 30 31 31 31 31
10 9 8 7 7 7 7 6 5 5 4 5 5 7 8 9 9 10 11 12 14 14 14 15 17 16 16 17 18 18 17 18 20 19 18 18 18 20 22 24 24 23 25 25 24 26 29 31 33 33 34 36 37 37 39 40 39 36 34 33 35 36 36 35 34 33 33 32 31 30 30 30 29 28 28 27 27 27 27 28 30 32 32 31 31
11 9 8 8 7 7 7 6 6 5 4 4 5 6 7 8 9 10 11 13 15 16 17 17 17 17 16 16 17 17 16 17 19 20 19 19 20 20 18 16 16 18 21 21 20 22 25 26 27 27 27 28 30 33 37 40 42 42 40 37 34 36 38 38 37 37 35 34 33 32 32 32 31 31 31 30 29 29 29 29 30 32 33 32 31
13 10 8 8 7 7 7 6 6 5 5 4 4 5 6 7 8 9 11 12 14 17 19 20 18 17 17 17 17 18 18 18 19 20 20 19 20 18 15 13 14 15 17 17 17 19 21 22 21 20 21 21 22 25 30 36 42 45 45 40 36 36 39 40 41 41 40 39 36 34 34 35 35 35 34 32 32 32 31 31 30 32 33 33 32
13 12 11 8 7 6 6 6 7 7 7 6 5 5 5 6 7 8 10 12 14 16 19 20 20 19 18 17 17 18 19 19 19 20 19 18 18 16 14 15 16 15 14 14 16 18 20 21 21 21 22 22 22 23 25 29 36 42 45 44 39 36 39 42 43 44 43 43 42 40 38 38 38 38 38 37 37 36 34 34 32 32 33 34 35
12 12 12 11 9 7 6 6 7 7 7 8 7 6 6 6 7 8 9 11 13 15 17 18 20 21 21 20 19 19 19 20 21 21 20 20 19 17 16 16 17 16 15 14 16 17 19 21 22 24 25 25 27 28 27 27 31 36 41 43 40 36 38 40 41 44 46 45 44 43 43 43 42 41 41 41 41 39 37 37 36 33 33 34 36
10 11 11 11 11 9 7 7 7 7 7 8 8 8 7 7 8 8 9 11 12 13 15 16 17 19 21 22 23 22 22 22 22 22 22 22 21 20 19 19 19 19 18 17 18 18 20 21 23 25 26 27 28 28 28 29 31 34 36 39 39 38 38 38 36 40 45 46 46 45 44 45 46 45 45 46 45 42 39 39 38 36 34 35 36
9 9 10 10 10 10 9 8 7 7 7 8 8 8 8 9 9 9 9 10 11 11 12 13 14 16 18 21 22 23 24 24 24 24 24 24 23 23 23 22 22 22 21 21 21 21 22 23 24 26 27 27 28 28 28 29 30 31 32 34 35 36 37 39 40 40 41 42 45 47 46 46 46 45 45 46 46 44 41 41 40 37 37 37 36
7 7 8 8 9 9 9 9 9 8 8 8 8 8 9 9 9 10 11 11 11 11 11 12 12 13 15 17 19 21 22 23 25 25 26 26 25 25 25 25 25 25 26 25 25 25 25 25 27 28 29 29 29 29 29 30 30 30 31 31 33 34 35 37 40 42 42 39 38 40 41 41 42 41 41 42 42 42 42 43 42 40 39 38 37
5 5 6 7 7 8 9 9 9 9 9 9 9 9 9 9 10 10 11 12 12 12 13 13 14 14 14 15 16 18 19 20 22 23 24 25 26 26 26 27 28 28 28 29 30 29 29 29 29 31 32 31 31 30 30 31 31 31 32 32 33 34 35 35 35 36 38 36 35 35 34 33 34 34 35 37 38 40 42 43 41 41 40 39 38
5 5 5 5 6 6 7 8 9 9 10 10 10 10 10 10 11 11 12 12 13 13 13 14 15 16 16 16 16 16 17 18 19 20 21 22 23 25 26 27 29 30 30 31 32 32 33 33 33 34 35 34 33 33 33 33 32 32 32 33 33 34 35 36 36 35 35 35 36 37 35 34 35 34 32 33 35 37 40 41 40 38 39 39 39
5 5 6 6 6 6 7 7 8 9 9 10 10 10 11 11 12 12 13 13 14 14 14 14 15 16 16 17 18 18 18 18 18 19 20 21 21 23 24 25 27 29 30 31 32 33 34 35 35 37 38 37 36 36 36 36 36 35 33 33 34 33 34 35 35 36 37 37 37 38 36 36 38 38 36 36 37 37 39 41 41 41 41 40 38
5 6 7 7 7 7 8 8 8 9 9 9 10 10 10 11 12 13 13 14 14 15 15 15 15 16 16 16 17 18 19 20 20 21 21 21 21 22 23 24 25 26 28 29 30 31 33 34 36 38 40 39 39 39 39 39 39 39 37 36 36 35 35 35 35 36 37 37 37 37 37 36 37 38 38 38 39 39 39 40 40 42 44 44 41
5 7 8 8 8 8 8 8 8 8 9 9 9 10 10 11 11 12 13 14 14 15 16 16 17 17 17 17 17 17 18 18 19 21 22 23 23 23 24 24 25 25 26 27 28 29 30 32 34 37 39 40 39 40 41 41 41 41 41 40 39 38 37 37 36 37 37 38 38 38 37 36 35 37 37 36 36 38 39 40 39 40 43 45 45
6 7 7 7 8 8 8 8 8 9 9 9 10 10 10 11 11 12 13 13 14 15 15 16 17 17 18 18 19 19 19 19 19 19 21 22 23 24 25 25 26 26 27 27 28 29 29 30 32 34 37 38 38 39 40 41 41 42 42 42 41 41 40 39 39 39 39 40 39 39 39 37 36 36 37 37 36 36 38 40 40 39 40 43 44
5 6 6 6 6 7 7 8 9 9 10 10 11 11 12 12 12 13 13 14 14 15 15 16 16 17 18 18 19 19 19 20 20 20 20 21 22 23 24 25 26 27 28 29 30 30 31 31 32 33 35 36 37 38 39 39 40 41 42 43 42 42 42 43 43 42 41 41 41 41 40 39 38 38 37 37 36 36 39 40 39 38 40 41 42
4 4 4 4 5 7 8 9 9 10 10 11 12 12 13 14 14 15 16 16 16 16 16 17 17 17 18 19 19 20 20 20 20 21 21 21 22 23 24 24 25 26 27 29 30 31 32 33 33 34 35 36 37 37 38 39 39 40 41 41 42 42 42 43 43 42 42 42 42 42 42 42 41 40 39 37 36 36 38 40 39 39 40 40 40
1 1 3 4 6 8 8 9 9 10 11 12 13 14 15 15 16 17 18 18 18 18 18 19 19 19 19 20 20 21 21 21 22 22 22 22 22 23 23 24 25 25 26 27 29 30 31 33 34 34 35 36 37 38 39 39 39 40 40 41 41 41 42 42 42 42 42 42 41 42 43 43 43 43 42 40 38 37 38 39 39 39 40 40 40
2 4 5 7 8 8 8 9 10 12 13 14 15 15 16 17 18 19 20 20 19 19 20 20 20 21 21 22 23 23 24 24 24 24 24 24 24 24 24 24 25 25 25 26 27 29 30 31 33 34 34 36 37 37 38 39 40 40 41 42 42 41 42 42 42 42 42 42 41 42 42 42 43 44 43 43 41 40 39 39 39 39 40 41 42
5 6 7 8 8 8 9 11 13 14 15 15 15 16 17 19 20 21 21 21 20 19 19 20 20 21 22 22 23 23 24 25 26 27 27 27 27 26 26 26 26 26 26 26 27 28 29 30 31 32 33 34 36 36 37 38 39 39 40 41 42 42 42 43 43 43 42 41 41 41 41 41 41 42 43 43 42 40 40 40 41 41 41 42 42
6 7 7 8 8 9 11 13 14 15 15 15 16 17 19 20 20 20 20 20 19 19 19 19 19 19 20 20 21 21 22 23 24 26 27 28 29 29 29 28 28 27 27 27 28 28 29 29 30 31 32 33 34 35 36 36 37 38 38 39 41 41 41 42 43 44 44 43 42 41 41 41 41 42 42 42 42 40 40 40 41 42 43 43 43
7 7 8 9 10 12 13 14 15 15 15 16 17 18 19 19 19 18 18 18 18 18 18 19 19 19 19 20 21 21 22 23 23 24 25 26 27 29 29 30 30 29 28 27 27 28 28 29 30 30 31 32 32 33 34 35 36 36 37 37 38 39 40 40 41 42 43 43 43 42 41 41 42 42 42 42 43 43 42 42 41 41 43 44 44
8 8 9 11 12 13 13 14 14 15 16 17 18 18 18 18 18 18 17 17 17 17 18 19 19 20 21 22 22 23 24 25 25 25 25 25 26 26 27 28 29 29 28 28 27 26 26 26 26 27 28 29 30 31 32 34 35 36 36 37 37 38 38 38 38 39 41 42 42 43 42 42 42 42 43 42 42 42 42 43 43 43 43 43 44
9 9 10 11 11 12 13 14 15 16 16 17 17 17 18 18 18 18 18 18 18 18 19 20 20 21 22 23 24 25 25 26 27 27 27 26 25 25 25 26 26 26 25 25 25 24 23 22 21 22 23 24 25 26 27 29 31 33 34 35 35 36 37 37 37 37 38 39 40 41 42 42 42 41 42 42 42 42 41 42 43 44 44 43 43
9 9 10 10 11 12 13 14 15 16 16 16 17 17 18 19 19 19 19 19 19 19 20 20 21 22 23 24 25 26 26 27 27 27 27 26 25 24 24 23 23 23 22 21 21 21 20 19 19 19 19 20 21 21 22 24 26 27 29 30 31 32 34 35 35 36 36 36 37 38 40 41 41 41 41 41 42 42 42 42 43 44 44 44 44
8 9 9 10 11 12 14 14 15 15 16 17 18 19 19 19 20 20 19 19 20 20 20 21 21 22 23 24 25 26 26 27 27 27 27 26 25 24 23 22 21 21 21 20 19 19 19 19 19 19 19 18 19 19 20 22 23 25 26 27 28 29 30 31 32 33 34 35 36 36 37 38 39 40 41 41 41 41 41 42 44 44 44 45 46
8 8 9 11 12 13 13 14 14 15 17 18 19 20 20 20 20 20 20 20 21 20 20 20 21 22 23 24 25 26 26 27 27 27 27 27 26 25 23 22 21 20 20 20 20 20 20 20 20 20 20 20 20 20 20 21 22 23 24 24 25 26 28 28 29 29 31 32 34 35 36 37 38 39 39 40 40 40 40 42 43 44 44 45 47
8 9 11 12 13 13 13 14 15 17 18 19 19 20 21 21 21 21 21 21 21 21 21 21 22 23 24 24 24 25 26 27 27 27 27 27 26 25 23 22 21 21 20 20 21 21 22 22 22 22 22 22 22 22 22 22 23 23 23 24 24 24 24 25 26 27 28 29 30 32 33 35 36 38 39 39 40 40 40 40 42 44 45 46 47
9 11 12 13 13 12 13 14 16 17 19 20 20 20 20 21 21 21 21 21 20 20 21 22 23 23 24 25 25 26 27 27 27 27 26 25 24 23 22 22 21 21 21 21 21 21 22 22 23 23 24 24 25 25 25 24 24 24 24 23 23 23 23 23 23 24 25 25 26 28 29 31 34 36 37 38 39 39 40 40 41 42 44 47 48
10 12 13 13 13 12 13 14 16 18 19 20 21 21 22 22 21 21 20 21 21 22 23 23 23 24 24 26 26 27 27 27 27 26 25 24 23 22 21 21 21 21 21 21 21 21 21 22 23 24 25 25 25 26 26 25 25 25 24 24 23 23 24 23 23 22 23 23 24 24 26 27 29 32 34 36 38 39 39 40 41 42 43 45 47
11 13 13 13 12 12 14 15 17 18 19 20 20 21 23 24 23 22 20 20 21 23 25 25 25 25 26 26 27 28 28 28 27 26 25 24 23 22 21 21 21 21 21 21 21 21 21 21 22 23 23 24 25 25 25 25 25 25 24 24 24 24 24 24 24 23 23 22 23 23 24 24 25 26 29 32 35 37 38 40 41 42 43 43 45
12 13 13 13 13 13 15 16 18 18 19 20 21 21 22 22 23 23 23 24 24 24 24 25 26 28 28 28 28 29 29 28 27 26 25 23 22 22 21 21 20 20 20 20 20 20 20 20 20 21 21 22 23 24 24 25 25 25 24 24 24 24 24 24 25 24 24 23 23 23 23 23 23 23 24 26 29 32 35 37 39 41 42 43 44
13 13 13 13 13 14 16 17 18 19 19 20 21 21 21 21 21 22 23 26 27 28 27 27 27 27 29 30 30 29 29 28 27 25 24 23 22 21 20 20 20 19 19 19 19 19 19 19 20 20 20 21 22 23 24 24 25 25 25 25 25 25 25 25 25 25 25 25 24 24 24 24 24 23 23 24 24 26 29 32 35 38 40 42 44
15 15 14 14 14 15 16 17 18 19 20 20 21 21 21 21 21 22 23 25 26 28 29 29 29 28 27 27 28 29 29 28 26 25 24 23 22 21 20 20 19 19 18 18 18 18 18 19 19 19 20 22 23 24 24 25 25 25 26 26 26 26 26 26 26 25 26 26 26 25 25 25 24 24 24 24 24 24 25 27 29 32 36 39 42
17 17 16 15 16 16 17 17 18 19 20 20 21 21 21 21 22 23 24 26 27 28 29 29 30 30 29 28 27 27 27 26 25 24 23 23 22 21 20 19 19 18 18 18 18 18 18 19 19 20 22 24 25 25 25 25 25 26 26 27 27 27 27 27 27 26 26 26 26 26 26 25 25 25 25 24 24 24 24 25 26 28 30 33 37
18 18 17 17 17 17 17 17 17 19 19 20 21 21 21 22 23 24 25 27 28 29 29 30 30 30 29 28 27 26 25 24 23 22 22 22 21 21 20 19 19 19 18 18 19 19 19 20 21 22 24 26 26 26 26 25 26 26 27 27 28 28 28 28 28 27 27 27 27 27 27 26 26 26 25 25 24 24 24 24 25 26 27 28 31
19 19 19 19 18 18 18 17 18 19 19 20 21 21 22 23 24 25 27 28 29 29 30 31 31 30 29 27 26 25 24 23 22 21 21 21 21 21 20 20 19 19 19 19 20 20 21 22 23 25 26 27 27 26 26 26 27 27 28 28 29 29 29 29 28 28 28 27 27 27 27 27 26 26 26 26 25 25 24 24 24 25 26 27 28
19 18 19 18 19 19 19 19 19 20 20 21 21 22 22 23 24 26 27 29 30 30 30 31 31 30 28 26 25 24 23 22 21 21 21 21 21 21 21 20 20 20 20 21 21 22 23 24 25 27 27 28 28 27 27 27 28 28 29 30 30 31 31 30 30 29 28 28 27 27 27 27 26 26 26 26 25 25 25 25 24 25 25 26 27
18 17 17 18 18 19 20 20 21 21 22 22 22 22 23 24 25 27 28 29 30 30 31 31 31 30 28 26 24 23 22 21 21 21 21 21 21 21 21 21 21 21 22 22 23 24 25 26 27 27 28 28 28 28 28 28 29 29 30 31 32 32 32 31 30 29 29 28 27 27 27 27 27 26 26 26 25 25 25 25 25 25 25 25 27
18 18 18 19 19 20 20 21 22 23 24 24 23 23 24 24 25 27 28 30 31 31 31 32 32 29 27 24 23 22 21 21 21 21 21 22 22 22 22 22 22 22 23 23 24 25 26 27 27 28 28 28 28 28 29 29 29 30 31 32 33 33 33 31 30 29 28 28 27 27 27 27 27 27 26 26 25 25 25 25 24 24 25 25 26
21 21 20 20 20 20 21 22 23 24 25 25 24 24 24 25 26 27 29 30 31 31 31 32 32 29 26 23 23 23 22 21 21 21 21 22 22 22 22 22 23 23 24 24 25 26 26 27 28 28 28 29 29 29 30 30 30 31 32 33 33 33 33 32 30 29 28 27 27 26 26 26 26 26 26 26 25 25 25 24 24 24 24 24 25
24 23 21 20 19 20 21 23 24 25 26 26 25 24 25 26 27 28 29 30 30 31 31 31 30 28 26 24 23 22 22 21 21 21 21 21 22 22 22 23 23 24 24 25 26 26 27 27 28 28 29 29 29 30 30 31 31 32 33 34 34 33 32 32 30 29 28 27 26 26 25 25 25 26 26 26 25 25 25 24 24 23 23 24 24
26 23 20 19 20 21 22 23 25 27 27 26 25 25 25 27 28 29 30 30 30 30 30 29 28 26 25 24 23 23 22 22 21 21 21 21 22 22 23 23 24 24 25 26 26 27 28 28 28 29 29 29 29 30 30 31 32 33 34 34 34 33 32 31 30 29 28 27 26 25 25 25 25 25 25 25 25 25 24 24 24 23 23 23 23
26 22 21 21 21 22 23 24 26 28 27 26 25 26 27 28 29 29 29 30 30 30 29 28 26 25 24 24 23 22 22 22 21 21 21 22 22 23 23 24 25 25 26 27 27 28 28 28 29 29 29 30 30 30 31 31 32 33 33 33 33 32 31 30 29 29 28 27 26 25 25 25 24 25 25 25 25 25 24 24 24 23 23 23 23
25 23 22 22 22 23 24 25 27 28 27 25 25 27 28 29 29 29 28 29 29 28 27 26 25 25 24 23 23 22 22 22 22 22 22 22 23 24 24 25 25 26 26 27 28 28 29 29 29 30 30 31 31 31 32 32 32 33 33 33 32 32 31 30 29 28 28 27 26 25 25 25 24 24 24 24 24 24 24 24 23 23 23 23 23
26 25 24 24 23 24 25 26 27 27 26 25 26 28 29 29 28 27 27 27 27 27 26 25 25 24 23 23 22 22 22 22 22 22 23 23 24 24 25 26 26 27 27 28 28 29 29 29 30 30 30 31 32 32 32 32 32 32 31 31 31 31 30 29 28 28 27 27 26 26 25 24 24 24 24 24 24 24 23 23 23 23 23 23 23
27 25 24 24 23 24 25 26 26 26 26 26 27 29 29 28 27 26 26 27 26 25 25 24 24 24 23 22 22 22 22 23 23 23 24 24 25 25 26 26 27 28 28 28 29 29 29 30 30 31 31 32 32 32 32 32 31 31 30 30 29 29 29 29 28 28 27 26 26 26 25 24 24 24 23 23 23 23 23 23 23 23 22 22 22
27 25 24 23 24 25 26 26 26 26 27 27 29 30 29 27 25 25 26 26 25 24 24 24 24 23 22 22 22 22 23 24 24 25 25 26 26 26 27 28 28 29 29 29 29 29 30 31 31 32 32 33 32 32 32 31 30 30 29 28 28 28 28 28 28 28 27 27 26 26 25 25 24 24 24 23 23 23 23 23 23 23 23 22 21
28 26 24 24 25 26 26 27 28 29 28 29 30 30 28 26 25 26 26 25 24 24 23 23 23 23 22 22 23 23 24 25 25 26 26 27 27 28 29 29 29 29 29 29 30 30 31 32 33 33 33 32 31 31 30 30 29 29 28 28 27 27 27 27 27 27 28 27 27 26 26 25 25 24 24 23 23 23 22 22 22 22 22 22 22
Wind_Direction
352 358 7 10 5 347 326 301 280 272 273 275 271 265 264 260 257 257 257 253 249 253 259 259 257 258 259 258 258 259 261 263 267 271 273 272 268 262 258 256 253 249 247 248 248 250 252 253 254 254 251 245 240 238 242 245 243 238 240 247 252 255 257 259 261 263 265 267 270 273 276 278 280 280 276 269 266 270 274 276 278 280 279 277 274
353 355 360 4 6 3 359 356 339 317 301 292 283 276 270 263 258 255 256 258 254 252 257 260 260 259 259 259 259 259 258 259 261 266 268 267 266 264 261 259 259 255 250 249 249 251 253 255 257 257 257 254 249 243 243 246 249 244 239 242 248 251 253 255 258 260 263 266 268 270 272 275 278 281 283 279 271 267 268 273 277 280 280 278 276
351 350 351 354 360 2 3 5 1 351 335 316 302 292 283 274 267 258 254 258 259 257 255 258 259 256 256 257 257 258 258 256 260 265 267 268 267 264 261 259 261 262 261 260 259 258 258 259 261 261 261 262 260 254 248 247 250 250 244 239 242 246 249 251 255 257 259 262 265 267 269 271 274 278 282 282 279 272 267 268 272 277 279 279 278
349 347 348 348 352 356 357 360 360 355 344 325 308 297 288 281 274 265 258 257 258 259 255 253 254 251 252 252 250 256 260 256 258 262 266 275 274 269 268 266 263 264 268 270 271 269 267 264 264 264 264 265 264 261 256 250 248 251 252 246 242 244 248 250 253 255 256 257 261 264 267 269 271 274 277 278 278 276 271 268 267 271 276 278 277
354 345 343 345 352 355 355 357 357 353 344 325 310 299 287 279 275 269 265 261 261 262 259 256 257 256 258 259 255 260 265 259 256 260 267 276 278 278 284 282 271 264 267 271 273 272 271 269 266 263 263 267 269 266 262 255 249 248 252 253 249 244 246 250 252 254 256 256 258 261 264 267 270 272 274 276 275 275 274 272 268 268 270 274 277
2 356 345 339 346 352 354 358 359 0 359 340 317 307 298 291 284 277 273 271 268 267 264 263 266 265 266 267 264 264 266 262 259 262 267 272 274 280 287 287 280 270 265 269 273 273 274 275 274 270 265 267 271 271 266 259 252 248 248 254 255 248 246 249 251 253 255 255 257 261 264 266 269 272 274 275 276 275 275 274 271 268 267 269 273
1 5 1 350 342 340 345 352 355 359 0 353 337 320 310 305 300 292 286 281 277 275 272 270 269 269 270 270 269 266 265 264 263 264 266 268 271 275 276 276 280 279 270 267 271 274 276 277 278 274 265 260 262 268 268 263 257 251 249 254 257 252 247 249 252 255 257 258 257 258 263 266 268 271 273 274 275 275 275 274 272 271 269 267 269
350 360 4 5 360 349 341 341 345 349 349 348 347 342 332 323 315 307 300 294 290 287 285 280 273 270 270 270 271 271 269 267 265 265 266 266 267 268 266 265 270 275 273 267 264 265 267 269 270 269 266 263 263 263 265 264 259 252 251 255 258 257 252 251 254 255 258 262 262 260 263 267 268 268 270 272 273 273 274 274 273 273 272 270 269
341 347 354 3 10 8 359 345 338 337 337 339 344 348 346 337 328 320 312 305 301 298 296 293 285 278 274 273 272 274 276 276 272 269 267 265 264 264 264 263 264 266 265 262 260 259 259 262 265 268 269 269 269 269 268 267 264 258 256 257 259 261 260 258 260 261 259 261 264 264 264 266 267 267 267 269 270 270 271 272 273 273 272 270 268
334 336 339 349 2 10 12 8 359 347 339 336 337 339 338 334 329 324 319 313 309 305 301 299 295 289 284 281 278 276 277 279 280 277 273 269 266 263 262 262 263 264 264 262 260 258 258 260 261 265 268 269 271 276 277 276 274 271 268 266 266 268 268 263 264 268 268 264 263 264 265 265 266 266 265 265 265 264 264 267 270 271 269 268 268
331 329 330 335 345 355 3 9 10 6 360 351 343 337 331 327 322 318 315 312 309 308 305 301 298 294 291 289 287 284 281 280 281 282 280 277 273 269 265 264 263 263 263 264 263 261 259 259 259 262 265 265 268 272 274 275 277 276 276 276 273 273 273 270 267 270 274 274 269 266 267 267 267 266 264 264 264 264 263 263 264 265 264 264 265
340 339 335 334 338 342 347 353 357 360 1 359 356 351 343 337 331 323 319 315 311 308 305 302 300 298 295 293 291 289 286 284 283 283 283 281 278 275 271 268 266 264 262 262 264 264 264 263 262 263 263 263 264 266 266 268 270 271 273 274 274 274 275 275 273 273 276 279 276 273 271 271 270 267 265 266 266 265 264 261 259 258 259 260 261
359 5 3 356 352 347 344 346 347 347 348 347 346 345 342 339 337 333 330 327 323 319 313 307 302 298 296 293 290 288 286 284 283 283 283 281 280 278 275 273 271 269 267 264 263 264 265 266 266 266 265 265 267 267 265 266 266 267 268 268 270 272 273 274 275 276 278 279 278 278 278 276 273 270 268 269 269 266 264 263 262 260 258 258 259
12 21 22 20 18 12 4 360 356 352 348 344 342 339 336 333 330 328 328 326 326 325 322 319 313 306 300 295 291 288 286 284 283 282 282 281 280 279 277 276 275 274 273 272 269 267 267 267 267 267 265 265 267 267 266 266 267 267 266 265 265 265 266 268 271 272 274 274 273 275 276 275 274 273 271 271 272 270 266 265 266 266 264 262 262
17 25 29 28 26 23 18 12 8 3 358 353 349 343 339 335 331 329 326 324 322 321 319 318 316 313 310 304 298 292 287 284 282 281 281 280 279 279 278 277 277 277 276 276 274 273 271 270 270 269 268 266 266 267 266 266 267 267 267 266 266 264 263 263 265 266 268 270 270 271 271 271 272 273 273 272 271 271 269 267 267 268 265 264 265
21 28 30 30 29 29 25 21 17 13 9 5 359 353 348 344 340 336 331 328 325 322 319 316 313 311 310 308 305 301 296 291 286 283 281 280 279 278 278 278 278 278 277 277 276 276 274 273 272 271 271 271 270 269 268 267 267 267 267 267 266 266 266 265 264 264 265 267 268 269 269 269 269 270 272 273 272 272 272 272 272 271 267 264 265
31 33 33 34 35 35 32 28 23 18 14 11 5 360 355 351 347 343 338 334 330 326 322 318 315 312 310 307 305 303 301 298 294 290 286 283 281 279 278 278 278 278 279 279 278 277 276 275 274 273 273 273 273 273 272 271 270 269 269 269 268 268 268 267 266 264 263 264 265 267 268 269 268 268 269 270 271 271 272 272 272 273 271 269 267
46 43 42 41 34 26 19 13 9 4 2 0 357 354 350 347 345 342 338 335 332 328 325 321 318 315 312 309 306 303 301 298 296 293 290 287 285 283 281 279 278 278 278 278 279 279 278 276 276 275 275 274 274 274 274 273 273 272 271 271 271 271 270 269 269 268 267 266 265 266 266 267 267 267 267 267 268 269 270 271 272 272 271 271 271
63 52 40 24 6 358 353 351 352 352 351 349 345 343 340 338 337 335 334 333 331 328 325 322 320 318 316 314 311 309 306 304 300 297 294 291 288 286 284 283 281 280 279 279 278 279 279 278 277 276 276 276 275 276 275 275 274 274 274 273 272 272 272 271 271 271 270 268 267 266 266 266 266 266 266 267 268 268 269 270 271 270 270 270 272
65 13 341 333 332 335 337 340 344 343 340 338 334 332 331 331 332 332 331 331 330 328 325 322 321 322 321 320 318 316 314 313 310 307 304 300 296 292 289 286 285 283 282 281 280 279 279 279 278 277 277 277 276 276 276 276 276 276 275 275 274 274 273 273 273 273 272 270 269 268 267 266 266 266 265 265 266 268 269 270 270 269 269 268 268
295 300 305 310 316 322 328 333 336 334 332 330 328 328 329 331 331 331 330 330 329 327 325 323 323 324 325 324 324 323 321 320 319 317 315 312 309 305 301 296 293 290 288 285 283 281 280 280 279 279 279 278 278 277 276 276 276 276 276 276 276 275 274 274 273 274 273 273 271 270 269 268 267 266 266 265 265 265 266 267 268 268 267 266 265
294 297 300 305 311 318 325 328 329 329 328 328 328 330 331 331 331 331 330 329 329 328 326 326 327 328 327 327 327 326 326 325 324 323 321 320 318 315 312 308 304 301 299 296 292 289 287 284 282 281 281 281 280 279 279 278 277 276 276 276 276 275 275 274 274 273 273 273 273 273 272 271 269 268 267 266 265 264 264 265 265 266 266 266 265
302 302 303 306 310 315 320 323 325 327 328 329 331 331 331 331 331 331 331 330 330 330 329 329 330 331 330 329 329 329 328 327 325 324 323 322 321 319 318 316 313 311 307 304 301 298 296 294 291 288 286 285 284 283 283 282 280 279 278 277 276 275 275 274 274 274 273 273 272 272 272 272 271 270 268 266 264 263 262 262 263 263 265 265 265
308 305 303 305 308 312 318 322 325 328 330 331 331 331 331 332 332 332 332 331 330 330 330 330 331 332 332 332 332 331 330 329 327 325 323 321 320 318 317 316 316 315 314 312 308 306 303 301 300 298 295 293 292 290 289 288 286 285 283 281 279 278 276 275 274 273 273 273 272 271 270 270 270 270 269 268 267 264 262 261 261 261 262 264 265
306 303 303 305 309 314 320 324 327 329 331 332 333 333 333 334 334 334 334 332 331 330 330 330 330 330 331 331 331 330 330 329 329 327 325 322 319 317 316 315 314 314 315 314 313 311 308 306 303 302 301 299 298 297 296 294 293 292 290 288 286 284 281 279 277 274 273 272 272 271 269 268 268 269 269 269 269 268 266 264 262 260 261 263 264
306 305 307 310 314 319 323 326 328 329 331 332 334 334 335 335 336 336 336 334 332 331 330 329 328 328 328 329 329 329 328 328 327 326 325 323 320 317 314 312 312 312 313 313 313 314 313 312 309 306 303 301 299 299 299 298 296 296 295 294 293 291 288 285 283 280 276 273 271 271 270 268 266 266 266 266 266 266 266 264 263 261 260 260 262
305 309 312 315 319 322 324 326 326 327 330 332 333 334 335 335 335 335 333 332 330 329 327 326 326 326 327 327 327 327 327 327 327 326 324 322 320 316 312 309 309 310 312 313 313 314 315 316 316 315 313 311 309 310 310 309 306 303 301 299 298 296 294 292 289 286 283 279 275 272 270 269 267 265 264 263 263 263 263 263 263 262 260 259 259
305 310 313 316 319 321 322 324 325 327 330 332 333 333 333 332 331 330 329 328 327 326 326 325 325 326 326 326 326 327 327 327 327 326 325 323 320 316 313 311 309 308 310 311 312 312 314 316 317 318 320 323 323 323 322 319 316 313 310 307 306 304 301 299 296 293 289 286 282 278 274 271 269 266 264 262 261 260 259 259 260 261 261 260 259
302 307 310 314 317 319 321 324 326 329 331 331 332 331 329 327 326 326 326 327 328 328 328 327 327 326 326 326 327 327 328 329 328 328 326 325 322 319 317 315 313 311 310 310 312 314 316 317 319 319 321 323 324 324 323 321 319 318 316 314 313 310 307 305 302 299 295 291 287 284 280 276 273 271 267 264 261 259 257 256 256 257 258 259 259
299 303 308 311 314 317 321 325 327 329 329 329 328 327 325 324 324 325 328 329 329 329 329 328 327 327 327 328 329 330 331 331 331 330 328 326 324 322 319 317 317 317 315 314 315 316 318 318 320 321 322 322 322 322 321 320 320 319 318 317 316 313 310 308 306 304 301 297 293 288 284 281 277 275 272 268 265 262 259 257 255 254 254 255 256
298 304 307 310 311 315 320 324 326 327 327 325 324 323 322 324 325 327 328 328 328 327 327 327 327 328 329 331 332 334 334 333 332 331 329 326 324 322 320 319 318 319 320 320 319 319 319 320 322 323 323 322 322 321 320 320 319 318 318 317 317 316 314 311 309 307 305 303 300 296 290 285 281 278 275 272 269 266 263 260 257 254 252 252 253
301 305 307 308 309 313 318 323 325 324 323 322 322 323 324 326 327 329 329 328 327 327 327 327 329 330 331 332 334 335 335 334 332 330 328 326 324 322 321 320 320 320 321 321 321 322 322 322 323 323 322 322 321 320 320 319 318 317 316 316 316 316 317 316 315 313 311 308 306 303 299 293 288 283 279 275 272 269 266 264 261 257 254 251 251
299 304 306 305 306 310 316 320 321 321 321 321 323 325 327 328 329 329 328 326 325 327 329 330 331 332 332 333 333 334 334 333 331 329 328 326 325 324 323 322 321 321 321 320 321 323 324 324 324 323 322 322 322 321 321 320 319 318 317 316 316 316 317 318 319 319 319 317 315 312 308 303 298 292 286 280 276 272 269 266 263 261 258 255 252
293 298 300 300 302 307 312 316 317 318 320 322 323 324 325 326 327 326 324 324 326 328 331 332 332 332 332 332 333 334 333 332 330 328 328 327 326 324 324 323 321 320 319 320 322 323 325 326 326 325 325 325 324 324 324 323 322 321 320 318 318 317 317 317 318 319 320 321 321 319 317 313 310 305 298 290 283 277 273 269 266 263 261 259 255
284 290 294 296 299 303 307 311 315 317 319 320 321 321 322 322 322 321 321 323 327 330 331 333 333 333 332 331 331 332 331 329 327 325 324 325 325 325 324 323 322 321 321 322 323 323 324 325 327 329 330 331 330 329 328 327 326 325 323 322 320 319 317 317 317 317 318 319 321 322 321 320 318 316 313 306 298 289 281 275 270 267 264 262 259
277 282 288 293 296 299 303 309 314 316 317 318 319 319 320 319 318 316 316 320 325 328 330 331 332 332 331 329 328 328 327 325 323 321 321 322 323 323 323 323 322 322 322 322 321 321 322 324 327 330 332 333 333 332 331 330 329 328 327 325 323 321 319 318 317 317 316 317 318 320 321 321 321 320 320 317 313 306 296 287 279 273 268 265 262
272 277 283 289 293 295 299 306 311 314 315 317 317 317 317 316 315 315 316 320 324 328 329 330 330 329 328 327 326 325 324 322 319 317 318 319 320 320 321 321 320 319 318 318 319 320 321 322 324 326 328 330 331 330 330 330 329 329 328 327 325 324 322 320 318 317 316 316 316 317 318 319 319 319 320 320 319 315 309 301 292 284 277 271 267
270 274 279 284 288 291 294 300 307 311 313 314 315 314 314 313 313 315 317 320 324 326 327 328 328 327 326 325 324 323 320 317 313 311 312 314 316 317 318 317 316 315 314 314 315 316 317 318 319 322 324 326 327 327 328 328 329 329 329 328 327 325 323 321 320 318 316 315 315 315 315 316 317 317 318 318 318 317 315 310 303 295 288 282 276
271 273 276 279 283 286 290 295 302 307 310 311 311 311 310 310 312 314 317 320 322 324 325 325 326 325 323 322 321 320 318 314 310 309 310 311 313 313 313 312 312 311 310 310 310 312 313 314 316 318 320 322 323 324 324 325 326 327 328 329 328 326 324 322 320 318 315 314 313 312 313 314 315 316 316 316 316 316 315 314 309 302 295 289 284
273 274 275 277 280 283 286 291 297 302 305 307 308 308 308 309 311 313 316 318 320 322 323 323 324 323 322 321 319 318 316 312 309 307 308 309 309 310 309 309 308 308 307 307 308 309 311 312 314 316 318 320 321 321 322 322 323 324 326 327 327 327 325 322 320 318 315 313 311 311 311 311 312 313 314 314 315 315 314 314 313 309 303 296 288
273 275 276 277 281 283 284 287 293 298 301 303 304 304 305 307 309 312 315 317 318 319 320 321 322 322 321 319 318 317 314 311 309 307 307 308 308 308 308 307 307 306 306 306 306 308 310 311 314 315 317 318 319 319 320 320 321 322 323 324 325 326 325 323 320 317 315 313 311 309 309 309 310 310 311 312 313 313 313 313 313 312 310 305 297
272 274 274 276 279 281 282 285 290 295 297 299 300 302 303 305 308 311 314 315 317 318 319 319 320 320 320 318 317 317 314 311 309 309 308 308 308 307 307 307 307 307 307 306 307 308 310 312 314 315 316 317 318 318 319 319 320 321 321 323 324 324 323 322 320 317 314 312 310 309 308 308 308 309 309 310 312 312 312 311 311 311 311 309 305
274 273 272 274 278 280 282 286 290 293 295 297 298 299 301 304 308 311 313 314 314 316 318 318 318 318 318 318 317 316 314 311 309 309 308 308 308 307 307 308 308 308 308 309 310 311 312 313 314 315 315 316 317 317 318 319 319 320 321 321 322 322 322 321 319 317 314 311 309 308 308 307 307 308 309 309 310 311 312 311 311 311 310 310 309
276 274 271 274 280 284 286 288 290 293 295 297 297 299 302 305 308 310 311 311 312 314 316 317 317 316 317 317 317 315 313 311 310 309 309 308 308 308 308 308 309 309 310 310 311 312 312 313 314 314 314 315 316 316 317 317 318 319 320 321 321 321 321 320 319 318 316 313 309 308 308 307 307 307 308 308 308 309 311 311 311 310 309 309 310
274 271 269 275 283 287 289 290 291 294 295 296 296 299 302 304 306 307 308 309 310 312 314 314 315 315 316 317 317 316 313 312 310 310 309 309 308 308 309 309 309 310 310 311 311 312 312 313 313 314 314 314 315 315 316 317 317 318 319 320 320 321 321 320 319 319 318 316 313 310 308 308 308 308 307 308 308 308 309 311 312 312 311 309 309
270 267 269 278 286 289 290 291 292 293 294 294 296 299 300 301 303 304 305 306 308 311 312 313 313 313 314 315 316 315 313 311 310 310 310 309 309 309 310 310 310 311 311 311 311 312 312 312 313 313 313 314 314 315 315 316 317 318 318 319 319 320 320 319 319 319 319 318 316 313 311 309 309 309 308 308 309 309 310 311 313 315 315 312 310
269 267 272 280 287 290 291 291 290 291 292 293 295 298 300 300 301 302 303 304 307 309 310 311 312 312 313 314 314 314 312 311 310 310 309 309 309 309 310 310 310 310 311 311 311 311 311 311 312 312 312 313 314 315 315 316 317 317 318 318 318 318 319 318 319 319 319 318 318 316 313 311 310 310 310 310 310 310 311 312 314 315 317 316 314
268 269 273 280 286 289 289 288 288 289 291 293 296 298 299 299 300 301 302 304 306 308 309 310 310 311 312 313 313 312 311 310 309 309 308 309 309 310 310 310 311 311 311 312 311 311 311 311 311 311 312 312 312 313 314 315 316 316 317 317 317 317 317 317 318 318 319 319 318 317 316 314 313 311 311 312 312 312 313 313 314 315 316 317 317
266 269 275 281 286 287 286 286 287 288 290 293 297 298 298 297 299 300 302 305 306 308 308 309 309 309 310 311 311 310 309 308 307 307 307 308 310 310 311 311 312 312 312 312 311 311 311 311 311 312 312 312 312 312 313 314 315 315 315 315 315 315 316 316 317 318 318 319 319 319 318 316 315 314 313 313 313 314 314 314 314 315 316 316 318
266 273 280 285 285 284 283 284 286 286 288 293 297 298 297 298 300 302 304 306 307 307 308 307 307 307 308 309 309 308 306 306 306 306 307 309 310 311 311 312 312 312 312 311 311 311 311 311 312 312 313 312 313 313 313 313 314 314 314 314 313 314 314 315 316 317 318 318 319 319 319 318 316 315 314 314 313 313 314 314 314 314 314 315 317
269 276 280 281 281 280 281 282 283 283 286 293 297 297 297 299 301 303 306 307 307 306 306 305 305 306 307 307 307 305 304 303 304 305 307 309 310 311 312 312 312 311 311 310 309 310 311 312 312 313 313 313 313 312 312 312 312 312 313 313 312 312 313 314 315 316 317 317 318 318 318 318 317 315 314 313 312 311 312 313 314 314 314 315 316
Height
3111 3110 3109 3109 3109 3109 3108 3108 3108 3107 3107 3107 3107 3107 3107 3108 3108 3108 3108 3108 3108 3109 3108 3108 3108 3108 3108 3109 3109 3109 3109 3110 3109 3109 3108 3108 3108 3109 3109 3109 3110 3112 3112 3112 3112 3114 3116 3117 3118 3119 3120 3119 3120 3122 3123 3125 3126 3126 3127 3129 3129 3130 3131 3132 3134 3135 3136 3137 3138 3138 3138 3138 3139 3139 3139 3138 3137 3137 3137 3137 3137 3137 3138 3138 3139
3111 3110 3109 3108 3108 3108 3107 3107 3107 3106 3106 3106 3105 3105 3105 3106 3106 3106 3106 3106 3107 3107 3106 3106 3106 3106 3106 3106 3106 3107 3107 3108 3108 3107 3107 3106 3105 3106 3106 3106 3107 3108 3108 3108 3109 3110 3111 3113 3114 3116 3116 3117 3118 3119 3119 3121 3123 3123 3124 3125 3126 3127 3128 3129 3130 3131 3132 3133 3134 3135 3135 3135 3136 3136 3135 3135 3135 3135 3135 3135 3134 3134 3135 3135 3135
3110 3110 3109 3108 3108 3107 3107 3106 3106 3106 3105 3105 3104 3104 3104 3104 3104 3104 3104 3105 3105 3105 3105 3104 3104 3104 3104 3103 3104 3104 3104 3104 3105 3105 3105 3104 3103 3103 3102 3102 3104 3105 3105 3106 3107 3107 3108 3109 3111 3112 3112 3113 3115 3115 3115 3117 3119 3120 3120 3121 3122 3123 3124 3124 3125 3127 3128 3130 3130 3131 3131 3131 3132 3133 3132 3132 3132 3132 3132 3132 3132 3132 3132 3132 3132
3110 3109 3109 3108 3107 3107 3107 3106 3106 3105 3104 3104 3103 3103 3103 3103 3103 3103 3103 3103 3103 3103 3103 3102 3101 3101 3101 3101 3101 3101 3101 3101 3102 3102 3102 3101 3100 3100 3099 3100 3101 3102 3102 3103 3104 3104 3104 3105 3106 3107 3107 3107 3109 3110 3110 3111 3114 3115 3116 3117 3117 3119 3120 3120 3121 3122 3124 3125 3126 3127 3127 3127 3128 3129 3129 3129 3129 3129 3129 3129 3129 3129 3129 3129 3129
3110 3109 3108 3107 3107 3106 3106 3105 3105 3104 3104 3103 3103 3102 3102 3102 3101 3101 3101 3101 3101 3101 3100 3099 3099 3100 3100 3100 3100 3100 3099 3099 3099 3099 3099 3099 3098 3097 3097 3097 3098 3098 3098 3099 3100 3100 3100 3101 3102 3102 3102 3103 3104 3104 3104 3105 3107 3110 3112 3113 3114 3114 3115 3115 3116 3117 3118 3120 3122 3123 3123 3124 3125 3125 3126 3126 3126 3126 3126 3126 3126 3126 3126 3126 3126
3109 3108 3107 3107 3106 3106 3105 3105 3104 3103 3103 3102 3102 3101 3101 3100 3100 3100 3100 3100 3100 3099 3098 3098 3098 3098 3099 3099 3099 3098 3098 3098 3098 3097 3097 3097 3096 3095 3095 3095 3095 3095 3095 3095 3097 3098 3098 3098 3099 3099 3099 3100 3100 3100 3100 3100 3101 3103 3106 3109 3109 3110 3110 3110 3110 3111 3112 3115 3117 3118 3119 3120 3121 3121 3122 3123 3123 3123 3122 3122 3122 3122 3122 3123 3123
3109 3108 3107 3106 3105 3105 3104 3104 3103 3102 3102 3101 3101 3100 3100 3099 3099 3099 3098 3098 3098 3097 3096 3096 3097 3097 3097 3097 3097 3096 3096 3096 3096 3095 3095 3095 3094 3094 3094 3094 3093 3093 3092 3092 3093 3095 3095 3095 3096 3096 3096 3096 3096 3096 3095 3095 3096 3098 3100 3102 3104 3105 3104 3104 3105 3106 3108 3109 3111 3113 3114 3116 3117 3117 3118 3119 3119 3119 3119 3119 3119 3119 3119 3119 3119
3109 3108 3106 3105 3104 3104 3103 3103 3102 3101 3101 3100 3100 3099 3099 3098 3098 3098 3097 3097 3096 3096 3095 3095 3095 3095 3095 3095 3095 3095 3094 3094 3094 3093 3093 3093 3093 3092 3093 3092 3092 3092 3091 3090 3091 3092 3093 3092 3092 3093 3093 3093 3092 3092 3092 3092 3093 3094 3096 3097 3099 3100 3099 3098 3100 3101 3102 3104 3106 3108 3109 3110 3112 3113 3114 3114 3114 3114 3115 3115 3114 3115 3116 3115 3114
3108 3107 3106 3105 3104 3103 3102 3102 3101 3101 3100 3100 3099 3098 3098 3097 3097 3096 3096 3095 3095 3095 3094 3093 3093 3093 3093 3093 3093 3093 3093 3092 3092 3092 3091 3091 3091 3091 3090 3090 3090 3090 3090 3089 3089 3090 3090 3090 3089 3090 3090 3090 3090 3090 3090 3090 3090 3091 3092 3093 3094 3095 3095 3095 3096 3096 3097 3098 3100 3103 3104 3105 3106 3107 3108 3109 3109 3109 3110 3109 3109 3111 3111 3111 3110
3108 3107 3105 3104 3104 3103 3102 3101 3101 3100 3099 3099 3098 3097 3097 3096 3096 3095 3095 3094 3094 3093 3092 3092 3091 3091 3091 3091 3091 3091 3091 3091 3090 3090 3090 3089 3089 3089 3089 3088 3088 3088 3088 3088 3088 3088 3088 3088 3087 3087 3087 3087 3088 3088 3088 3088 3088 3088 3089 3090 3090 3091 3092 3091 3092 3093 3093 3093 3094 3097 3098 3098 3100 3101 3102 3102 3103 3104 3104 3104 3104 3106 3106 3105 3105
3107 3106 3105 3104 3103 3102 3101 3101 3100 3099 3099 3098 3097 3097 3096 3095 3095 3094 3094 3093 3093 3092 3091 3090 3090 3089 3089 3089 3089 3089 3089 3088 3088 3088 3088 3087 3087 3087 3087 3086 3086 3086 3086 3086 3086 3086 3086 3086 3085 3084 3084 3084 3085 3086 3086 3086 3086 3086 3087 3087 3088 3088 3088 3088 3088 3089 3089 3089 3090 3092 3092 3093 3095 3096 3096 3096 3097 3099 3099 3099 3099 3100 3099 3099 3100
3107 3106 3105 3104 3103 3102 3101 3100 3099 3099 3098 3097 3097 3096 3095 3094 3094 3093 3092 3092 3091 3090 3090 3089 3088 3087 3087 3086 3086 3086 3086 3086 3085 3085 3085 3085 3085 3085 3085 3084 3083 3083 3083 3083 3083 3082 3082 3082 3082 3081 3080 3081 3082 3082 3083 3083 3083 3083 3083 3084 3084 3084 3084 3084 3085 3086 3086 3086 3086 3087 3088 3089 3090 3092 3092 3092 3093 3095 3094 3094 3095 3094 3093 3092 3093
3106 3105 3104 3103 3102 3101 3100 3099 3099 3098 3098 3097 3096 3095 3095 3094 3093 3092 3091 3090 3089 3088 3088 3087 3086 3085 3085 3084 3084 3084 3083 3083 3083 3082 3082 3082 3082 3082 3082 3081 3081 3080 3080 3079 3079 3079 3078 3078 3078 3077 3076 3077 3078 3078 3079 3079 3079 3080 3080 3080 3080 3081 3081 3081 3081 3082 3082 3083 3082 3082 3084 3086 3085 3087 3090 3089 3089 3089 3089 3090 3091 3090 3088 3086 3087
3105 3104 3103 3102 3102 3101 3100 3099 3098 3098 3097 3096 3096 3095 3094 3093 3092 3091 3090 3089 3088 3087 3086 3085 3085 3084 3083 3082 3082 3082 3081 3081 3080 3080 3080 3079 3079 3079 3078 3078 3078 3077 3077 3076 3076 3075 3075 3074 3074 3072 3072 3073 3074 3074 3074 3075 3075 3075 3076 3076 3077 3077 3078 3078 3078 3078 3078 3078 3078 3078 3080 3081 3081 3083 3085 3085 3084 3084 3085 3086 3086 3085 3083 3082 3082
3105 3104 3103 3102 3101 3101 3100 3099 3098 3098 3097 3096 3095 3094 3093 3092 3091 3090 3089 3088 3087 3086 3085 3084 3083 3082 3082 3081 3080 3079 3079 3078 3078 3077 3077 3077 3076 3076 3075 3075 3074 3074 3073 3072 3072 3072 3071 3071 3070 3068 3068 3069 3070 3069 3070 3070 3070 3071 3071 3072 3072 3073 3074 3074 3074 3074 3074 3073 3073 3074 3075 3076 3077 3077 3079 3080 3079 3079 3079 3079 3079 3079 3078 3078 3078
3104 3103 3102 3102 3101 3100 3100 3099 3098 3098 3097 3096 3095 3094 3093 3091 3090 3089 3088 3087 3086 3085 3084 3083 3082 3081 3080 3079 3078 3077 3077 3076 3076 3075 3074 3074 3073 3073 3072 3072 3071 3070 3070 3069 3068 3068 3067 3067 3066 3065 3063 3064 3065 3065 3065 3065 3066 3066 3066 3067 3068 3068 3069 3069 3069 3069 3069 3068 3068 3069 3070 3071 3072 3072 3073 3074 3074 3074 3074 3073 3073 3074 3073 3073 3073
3103 3103 3102 3102 3101 3100 3100 3099 3098 3097 3097 3096 3094 3093 3092 3091 3090 3088 3087 3086 3085 3084 3083 3082 3080 3079 3078 3077 3076 3075 3074 3074 3073 3072 3072 3071 3070 3070 3069 3069 3068 3067 3066 3065 3064 3064 3063 3063 3062 3061 3060 3060 3060 3060 3060 3060 3060 3060 3061 3061 3062 3063 3063 3063 3063 3064 3064 3064 3064 3065 3065 3066 3067 3068 3068 3069 3070 3070 3068 3067 3069 3070 3069 3068 3068
3103 3103 3102 3102 3101 3101 3100 3099 3098 3097 3096 3095 3094 3093 3092 3090 3089 3088 3087 3085 3084 3083 3081 3080 3079 3078 3076 3075 3074 3073 3072 3071 3071 3070 3069 3068 3067 3067 3066 3065 3065 3064 3063 3062 3061 3060 3059 3059 3058 3057 3056 3055 3055 3055 3054 3054 3055 3055 3055 3055 3056 3057 3057 3057 3057 3058 3059 3059 3060 3060 3060 3061 3062 3062 3063 3064 3065 3065 3062 3061 3064 3065 3063 3063 3063
3103 3102 3102 3102 3101 3100 3099 3098 3098 3097 3096 3095 3093 3092 3091 3090 3088 3087 3086 3084 3083 3082 3080 3079 3077 3076 3075 3073 3072 3071 3070 3069 3068 3068 3067 3066 3065 3064 3063 3062 3061 3061 3060 3059 3058 3056 3055 3054 3054 3053 3052 3051 3051 3050 3050 3049 3049 3049 3049 3049 3050 3050 3051 3051 3051 3052 3053 3053 3054 3054 3055 3055 3056 3056 3058 3059 3059 3059 3057 3057 3059 3059 3057 3058 3059
3103 3102 3102 3101 3100 3100 3099 3098 3097 3096 3095 3094 3093 3091 3090 3089 3087 3086 3084 3083 3082 3080 3078 3077 3075 3074 3073 3071 3070 3069 3067 3066 3065 3064 3064 3063 3062 3061 3060 3059 3058 3058 3057 3055 3054 3053 3052 3050 3049 3049 3048 3047 3046 3045 3045 3044 3044 3044 3043 3043 3044 3044 3045 3045 3045 3045 3046 3047 3048 3048 3048 3049 3050 3050 3052 3053 3054 3054 3054 3053 3053 3053 3052 3053 3054
3102 3102 3101 3100 3100 3099 3098 3097 3096 3095 3094 3093 3091 3090 3089 3087 3086 3084 3083 3082 3080 3079 3077 3075 3074 3072 3071 3070 3068 3066 3065 3064 3063 3061 3061 3060 3059 3058 3057 3055 3055 3054 3053 3052 3051 3049 3048 3047 3046 3044 3043 3042 3041 3041 3040 3039 3039 3039 3038 3037 3038 3038 3038 3039 3039 3039 3039 3040 3041 3042 3042 3043 3044 3044 3045 3047 3048 3049 3049 3048 3048 3048 3047 3047 3048
3101 3101 3100 3099 3099 3098 3097 3096 3095 3094 3093 3091 3090 3089 3087 3086 3084 3083 3081 3079 3078 3077 3075 3074 3073 3071 3070 3068 3066 3065 3063 3062 3060 3058 3057 3056 3055 3054 3053 3052 3051 3050 3049 3047 3046 3045 3044 3043 3042 3040 3039 3038 3037 3036 3035 3034 3034 3033 3033 3032 3032 3032 3032 3032 3033 3033 3033 3034 3035 3035 3036 3036 3037 3038 3039 3040 3041 3042 3042 3042 3042 3042 3041 3041 3042
3100 3099 3099 3098 3097 3096 3095 3094 3093 3092 3091 3090 3089 3087 3086 3084 3083 3081 3079 3078 3076 3075 3074 3073 3072 3070 3068 3067 3065 3064 3062 3060 3058 3056 3055 3053 3051 3050 3048 3047 3046 3045 3044 3043 3042 3041 3040 3038 3037 3036 3035 3033 3032 3031 3030 3029 3028 3028 3028 3027 3026 3026 3026 3026 3026 3026 3027 3027 3028 3029 3029 3029 3029 3030 3031 3032 3034 3035 3035 3035 3036 3036 3035 3035 3036
3098 3098 3097 3096 3096 3095 3094 3093 3092 3091 3089 3088 3087 3086 3084 3083 3081 3080 3078 3077 3075 3074 3072 3071 3070 3068 3067 3065 3064 3062 3061 3059 3057 3056 3054 3052 3050 3047 3046 3044 3042 3041 3040 3039 3038 3037 3036 3035 3033 3032 3030 3029 3028 3026 3024 3023 3023 3022 3022 3021 3021 3020 3020 3020 3020 3020 3020 3020 3020 3021 3022 3022 3022 3022 3023 3024 3026 3027 3028 3029 3030 3030 3030 3029 3029
3096 3096 3095 3094 3094 3093 3092 3091 3090 3089 3088 3086 3085 3084 3082 3081 3080 3079 3077 3076 3074 3073 3071 3070 3068 3067 3065 3064 3062 3061 3059 3057 3055 3054 3052 3050 3048 3046 3044 3042 3040 3038 3037 3036 3034 3033 3032 3031 3030 3028 3027 3025 3024 3022 3021 3019 3018 3017 3016 3015 3015 3014 3014 3014 3014 3014 3014 3014 3013 3014 3014 3015 3016 3016 3016 3017 3019 3020 3021 3022 3023 3024 3024 3023 3022
3094 3093 3093 3092 3092 3091 3090 3089 3088 3087 3086 3085 3083 3082 3081 3079 3078 3077 3075 3074 3073 3071 3070 3068 3067 3065 3064 3062 3060 3058 3057 3055 3053 3051 3049 3048 3046 3044 3042 3040 3038 3037 3035 3033 3032 3030 3029 3028 3027 3025 3024 3023 3021 3020 3018 3016 3014 3012 3011 3010 3009 3008 3008 3008 3008 3008 3007 3007 3007 3007 3007 3007 3008 3009 3009 3010 3011 3012 3014 3014 3015 3016 3017 3017 3016
3092 3091 3091 3090 3090 3089 3088 3087 3086 3085 3084 3083 3082 3080 3079 3078 3076 3075 3074 3073 3071 3070 3068 3067 3065 3063 3062 3060 3058 3056 3054 3053 3051 3049 3047 3045 3044 3042 3040 3038 3037 3035 3033 3032 3030 3028 3027 3026 3024 3023 3022 3020 3018 3017 3015 3013 3012 3010 3008 3006 3005 3003 3002 3002 3001 3001 3001 3001 3001 3000 3000 3000 3000 3001 3002 3003 3003 3005 3006 3006 3007 3008 3010 3010 3010
3090 3089 3089 3088 3088 3087 3086 3085 3084 3083 3082 3081 3079 3078 3077 3076 3075 3074 3072 3071 3070 3068 3067 3065 3063 3062 3060 3058 3056 3054 3052 3050 3048 3046 3045 3043 3041 3039 3038 3036 3034 3033 3031 3030 3028 3027 3025 3024 3022 3021 3019 3018 3016 3015 3013 3012 3010 3008 3006 3004 3001 3000 2998 2997 2996 2995 2994 2994 2994 2994 2993 2993 2993 2994 2995 2995 2996 2997 2998 2998 2999 3000 3002 3003 3002
3088 3087 3087 3086 3086 3085 3084 3083 3082 3081 3080 3078 3077 3076 3075 3074 3073 3072 3070 3069 3067 3066 3065 3063 3061 3060 3058 3056 3054 3052 3050 3048 3046 3043 3041 3039 3038 3036 3034 3033 3032 3030 3029 3027 3026 3024 3023 3021 3020 3018 3017 3016 3015 3013 3012 3010 3008 3006 3004 3002 3000 2998 2996 2993 2992 2990 2989 2988 2987 2987 2987 2987 2986 2986 2987 2988 2988 2989 2990 2991 2991 2992 2994 2995 2995
3086 3085 3085 3084 3084 3083 3082 3081 3080 3078 3077 3076 3075 3074 3073 3072 3070 3069 3068 3066 3065 3063 3062 3061 3059 3057 3056 3054 3052 3049 3047 3045 3043 3040 3038 3036 3034 3033 3031 3030 3028 3027 3026 3024 3023 3021 3020 3019 3017 3016 3014 3013 3012 3010 3009 3007 3006 3004 3002 3000 2998 2996 2993 2991 2989 2987 2985 2983 2982 2981 2981 2980 2980 2979 2979 2980 2981 2981 2982 2983 2984 2984 2985 2987 2987
3084 3083 3083 3082 3081 3081 3080 3079 3078 3076 3075 3074 3073 3072 3071 3070 3068 3066 3065 3064 3063 3062 3060 3058 3057 3055 3053 3051 3049 3046 3044 3042 3040 3038 3036 3034 3032 3030 3029 3027 3026 3024 3023 3022 3020 3019 3018 3016 3014 3013 3011 3010 3009 3007 3006 3004 3002 3000 2998 2996 2994 2993 2991 2989 2986 2984 2982 2980 2978 2976 2975 2974 2973 2973 2973 2973 2973 2974 2974 2975 2976 2977 2978 2979 2979
3082 3081 3080 3080 3079 3078 3077 3076 3075 3074 3073 3072 3071 3069 3068 3066 3065 3064 3062 3061 3060 3059 3057 3056 3054 3052 3050 3047 3045 3043 3041 3039 3037 3035 3033 3031 3029 3028 3026 3025 3023 3022 3021 3019 3018 3017 3015 3014 3012 3010 3009 3007 3006 3004 3002 3001 2999 2997 2995 2993 2991 2989 2987 2985 2983 2981 2979 2977 2975 2973 2971 2969 2968 2967 2966 2966 2966 2966 2967 2967 2968 2969 2970 2971 2972
3079 3079 3078 3077 3077 3076 3075 3074 3073 3072 3071 3070 3068 3067 3065 3062 3061 3060 3060 3059 3058 3056 3054 3052 3050 3048 3047 3045 3042 3040 3038 3036 3034 3032 3030 3028 3027 3025 3024 3022 3021 3020 3018 3017 3016 3014 3013 3011 3010 3008 3006 3005 3003 3001 2999 2997 2996 2994 2992 2990 2988 2986 2984 2982 2980 2978 2976 2974 2972 2969 2967 2966 2964 2962 2961 2960 2960 2959 2960 2960 2960 2961 2962 2963 2964
3078 3077 3076 3075 3075 3074 3073 3072 3071 3070 3069 3067 3066 3064 3063 3061 3059 3058 3056 3056 3055 3053 3052 3049 3047 3044 3042 3041 3039 3037 3035 3033 3031 3029 3027 3026 3024 3023 3021 3020 3019 3018 3016 3015 3014 3012 3011 3009 3008 3006 3004 3003 3001 2999 2997 2995 2993 2991 2989 2987 2985 2983 2981 2979 2976 2974 2973 2970 2968 2966 2964 2962 2960 2959 2957 2956 2955 2954 2953 2953 2953 2954 2954 2954 2956
3076 3075 3074 3073 3073 3072 3071 3070 3069 3068 3066 3065 3064 3062 3061 3059 3058 3057 3055 3053 3051 3049 3047 3046 3045 3042 3039 3037 3035 3033 3032 3030 3028 3027 3025 3023 3022 3020 3019 3018 3017 3016 3014 3013 3012 3010 3009 3007 3006 3004 3002 3001 2999 2997 2995 2992 2990 2988 2986 2984 2982 2980 2978 2976 2974 2971 2969 2967 2965 2963 2961 2959 2957 2955 2953 2952 2950 2949 2948 2948 2947 2947 2947 2947 2948
3073 3073 3072 3071 3070 3070 3069 3067 3066 3065 3064 3062 3061 3060 3058 3057 3056 3055 3054 3052 3050 3047 3045 3043 3042 3040 3038 3036 3033 3031 3029 3027 3026 3024 3023 3021 3020 3018 3017 3016 3015 3013 3012 3011 3010 3008 3007 3006 3004 3002 3001 2999 2997 2995 2993 2990 2988 2986 2984 2981 2979 2977 2975 2973 2971 2969 2967 2964 2962 2960 2958 2956 2954 2952 2950 2949 2947 2945 2944 2943 2942 2942 2941 2940 2941
3071 3070 3069 3069 3068 3067 3066 3065 3064 3063 3061 3060 3059 3057 3056 3055 3054 3052 3051 3049 3048 3046 3044 3041 3039 3037 3036 3034 3032 3029 3027 3025 3023 3022 3020 3019 3018 3016 3015 3014 3012 3011 3010 3009 3008 3006 3005 3003 3002 3000 2999 2997 2995 2993 2991 2989 2986 2984 2981 2979 2977 2974 2972 2970 2968 2966 2964 2961 2959 2957 2955 2953 2951 2949 2947 2945 2944 2942 2940 2939 2938 2937 2936 2935 2935
3067 3067 3067 3066 3065 3064 3063 3062 3061 3060 3059 3058 3056 3055 3053 3052 3051 3050 3048 3046 3045 3043 3041 3039 3037 3035 3033 3031 3029 3027 3025 3023 3022 3020 3019 3017 3016 3014 3013 3012 3010 3009 3008 3007 3005 3004 3003 3001 3000 2998 2996 2994 2993 2991 2988 2986 2984 2982 2979 2977 2974 2972 2969 2967 2965 2963 2960 2958 2956 2954 2953 2950 2948 2946 2944 2942 2941 2939 2938 2936 2934 2933 2932 2931 2930
3064 3064 3063 3063 3062 3061 3060 3059 3058 3057 3056 3055 3054 3052 3051 3050 3048 3047 3045 3043 3041 3040 3038 3036 3035 3033 3031 3029 3027 3025 3023 3021 3019 3018 3016 3015 3014 3012 3011 3010 3008 3007 3006 3004 3003 3002 3000 2999 2997 2995 2993 2992 2990 2988 2986 2984 2981 2979 2977 2974 2972 2969 2967 2964 2962 2960 2957 2955 2953 2951 2949 2948 2946 2944 2942 2939 2938 2936 2934 2933 2931 2929 2927 2927 2926
3061 3060 3060 3059 3059 3058 3057 3056 3055 3055 3053 3052 3051 3050 3048 3047 3046 3044 3042 3040 3038 3037 3035 3033 3032 3030 3028 3026 3024 3022 3020 3019 3017 3016 3014 3013 3012 3010 3009 3007 3006 3005 3003 3002 3000 2999 2998 2996 2994 2992 2990 2989 2987 2985 2983 2981 2978 2976 2974 2972 2969 2967 2964 2961 2959 2957 2954 2952 2950 2948 2946 2945 2943 2941 2939 2937 2935 2933 2931 2929 2928 2925 2923 2922 2921
3058 3057 3056 3056 3055 3055 3054 3053 3052 3051 3050 3049 3048 3046 3045 3044 3043 3041 3039 3037 3036 3034 3032 3030 3029 3027 3025 3023 3021 3019 3018 3016 3014 3013 3012 3010 3009 3008 3006 3005 3003 3002 3001 2999 2998 2996 2995 2993 2991 2989 2987 2985 2983 2981 2979 2977 2975 2973 2971 2968 2966 2964 2961 2958 2956 2954 2951 2949 2947 2945 2943 2941 2940 2938 2936 2934 2932 2930 2928 2926 2924 2922 2920 2918 2917
3054 3053 3053 3052 3052 3051 3051 3050 3049 3048 3047 3046 3045 3043 3042 3041 3039 3038 3036 3034 3032 3031 3029 3027 3025 3024 3022 3020 3018 3016 3015 3013 3012 3010 3009 3007 3006 3005 3003 3002 3001 2999 2998 2996 2995 2993 2991 2990 2988 2986 2984 2982 2980 2978 2976 2974 2972 2970 2967 2965 2963 2960 2958 2956 2953 2951 2948 2946 2944 2942 2940 2938 2936 2935 2933 2931 2929 2927 2925 2923 2921 2919 2917 2915 2913
3051 3050 3049 3049 3049 3048 3047 3047 3046 3045 3044 3042 3041 3040 3039 3037 3036 3034 3033 3031 3029 3027 3025 3023 3021 3020 3019 3017 3015 3013 3012 3010 3009 3008 3006 3005 3003 3002 3000 2999 2997 2996 2994 2993 2991 2990 2988 2986 2984 2983 2981 2979 2977 2975 2972 2970 2968 2966 2964 2962 2959 2957 2954 2952 2950 2947 2945 2943 2941 2939 2937 2935 2933 2931 2929 2928 2926 2924 2922 2920 2918 2916 2914 2912 2910
3047 3046 3046 3046 3045 3045 3044 3043 3042 3042 3041 3039 3038 3037 3035 3034 3032 3030 3029 3028 3026 3024 3022 3020 3018 3016 3015 3013 3012 3010 3009 3007 3006 3005 3003 3002 3000 2999 2997 2996 2995 2993 2991 2990 2988 2986 2985 2983 2981 2979 2977 2975 2973 2971 2969 2967 2965 2962 2960 2958 2956 2953 2951 2948 2946 2944 2942 2940 2938 2936 2934 2932 2930 2928 2926 2925 2923 2921 2919 2917 2915 2913 2911 2909 2907
3043 3042 3042 3042 3041 3041 3040 3039 3039 3038 3037 3036 3034 3033 3032 3030 3029 3027 3026 3024 3022 3021 3019 3017 3015 3013 3011 3010 3008 3007 3006 3004 3003 3002 3000 2999 2998 2996 2995 2993 2992 2990 2988 2987 2985 2983 2981 2979 2977 2975 2973 2972 2970 2967 2965 2963 2961 2959 2956 2954 2951 2949 2947 2945 2942 2940 2938 2936 2934 2932 2930 2929 2927 2925 2923 2921 2920 2918 2916 2914 2912 2910 2908 2906 2904
3039 3038 3038 3038 3037 3037 3036 3035 3035 3034 3033 3032 3030 3029 3028 3027 3025 3024 3022 3020 3019 3017 3015 3014 3012 3010 3008 3007 3005 3004 3002 3001 3000 2999 2997 2996 2995 2993 2992 2990 2988 2987 2985 2983 2982 2980 2978 2976 2974 2972 2970 2968 2966 2964 2962 2960 2957 2955 2952 2950 2948 2945 2943 2941 2939 2937 2935 2933 2931 2929 2927 2925 2924 2922 2920 2918 2916 2915 2913 2911 2909 2907 2905 2903 2901
3035 3034 3034 3034 3033 3033 3032 3031 3031 3030 3029 3028 3027 3025 3024 3023 3021 3020 3019 3017 3015 3014 3012 3010 3008 3007 3005 3004 3002 3001 2999 2998 2997 2996 2995 2993 2992 2990 2989 2987 2985 2984 2982 2980 2978 2976 2974 2972 2971 2969 2966 2964 2962 2960 2958 2956 2954 2951 2949 2946 2944 2942 2940 2938 2936 2934 2932 2930 2928 2926 2924 2922 2920 2919 2917 2915 2913 2911 2910 2908 2906 2904 2902 2900 2898
3030 3030 3030 3030 3029 3028 3028 3028 3027 3026 3025 3024 3023 3022 3020 3019 3017 3016 3015 3013 3012 3010 3009 3007 3005 3004 3002 3001 2999 2998 2996 2995 2994 2993 2992 2990 2989 2987 2986 2984 2982 2980 2978 2977 2975 2973 2971 2969 2967 2965 2963 2961 2959 2956 2954 2952 2950 2948 2945 2943 2941 2938 2936 2934 2932 2931 2929 2927 2925 2923 2921 2919 2917 2916 2914 2912 2910 2908 2907 2905 2903 2902 2900 2898 2896
3026 3026 3026 3025 3025 3024 3024 3023 3023 3022 3021 3020 3019 3018 3017 3015 3014 3012 3011 3009 3008 3007 3005 3003 3002 3000 2999 2997 2996 2995 2993 2992 2991 2990 2988 2987 2986 2984 2982 2981 2979 2977 2975 2973 2971 2969 2967 2965 2963 2961 2959 2957 2955 2953 2951 2948 2946 2944 2942 2940 2938 2935 2933 2931 2929 2927 2926 2924 2922 2920 2918 2916 2915 2913 2911 2909 2908 2906 2904 2902 2901 2899 2897 2896 2894
3022 3021 3021 3021 3021 3020 3020 3019 3019 3018 3017 3016 3015 3014 3013 3011 3010 3008 3007 3005 3004 3003 3001 3000 2998 2997 2995 2994 2993 2992 2990 2989 2988 2987 2985 2984 2982 2981 2979 2977 2975 2973 2971 2969 2967 2965 2963 2961 2959 2957 2955 2953 2951 2949 2946 2944 2943 2941 2938 2937 2935 2932 2930 2928 2926 2924 2922 2921 2919 2917 2916 2914 2912 2910 2908 2907 2905 2903 2902 2900 2898 2896 2895 2893 2892
3018 3017 3017 3017 3017 3016 3016 3015 3015 3014 3013 3012 3011 3010 3009 3007 3005 3004 3003 3002 3000 2999 2998 2996 2995 2993 2992 2991 2990 2989 2987 2986 2985 2983 2982 2980 2979 2977 2975 2973 2971 2969 2968 2966 2964 2962 2960 2957 2955 2953 2951 2949 2947 2945 2943 2941 2939 2937 2935 2933 2931 2929 2927 2925 2923 2921 2919 2918 2916 2914 2913 2911 2909 2908 2906 2904 2903 2901 2899 2898 2896 2894 2892 2891 2889